Menu

In Person Flight Instructor Refresher Courses

Air Safety Institute Logo

Welcome

Flight Instructor Refresher Course

The AOPA Air Safety Institute In-Person Flight Instructor Refresher Course gives you the opportunity to renew your flight instructor certificate together with other flight instructors in your area. The two day course is led by expert presenters who are knowledgeable and engaging. Not only will you refresh your knowledge and pick up some new information, but you will also be able to network with other local professional pilots.

Location Start Time End Time State Latitude Longitude cssIndex Topic cssIndex
Albuquerque, NM 11-11-2017 7:30 AM 11-12-2017 5:00 PM Learn More New Mexico 35.109027000000000 -106.623303000000000 1 mtgFlightInstructorRefresherCourse FIRC_NM_171111
Anchorage, AK 11-11-2017 7:30 AM 11-12-2017 5:00 PM Learn More Alaska 61.216714000000000 -149.876841000000000 1 mtgFlightInstructorRefresherCourse FIRC_AK_171111
Atlanta, GA 11-11-2017 7:30 AM 11-12-2017 5:00 PM Learn More Georgia 33.659125000000000 -84.437489000000000 1 mtgFlightInstructorRefresherCourse FIRC_GA_171111
Ashburn, VA 11-18-2017 7:30 AM 11-19-2017 5:00 PM Learn More Virginia 39.012322000000000 -77.459647000000000 1 mtgFlightInstructorRefresherCourse FIRC_VA_171118
San Diego, CA 11-18-2017 7:30 AM 11-19-2017 5:00 PM Learn More California 32.725703000000000 -117.223193000000000 1 mtgFlightInstructorRefresherCourse FIRC_CA_171118
Northbrook, IL 12-02-2017 7:30 AM 12-03-2017 5:00 PM Learn More Illinois 42.101270000000000 -87.883619000000000 1 mtgFlightInstructorRefresherCourse FIRC_IL_171202
Denver, CO 12-02-2017 7:30 AM 12-03-2017 5:00 PM Learn More Colorado 39.773051000000000 -104.809523000000000 1 mtgFlightInstructorRefresherCourse FIRC_CO_171202
Lake Mary, FL 12-09-2017 7:30 AM 12-10-2017 5:00 PM Learn More Florida 28.758404000000000 -81.360415000000000 1 mtgFlightInstructorRefresherCourse FIRC_FL_171209
Santa Clara, CA 01-06-2018 7:30 AM 01-07-2018 5:00 PM Learn More California 37.382500000000000 -121.979300000000000 1 mtgFlightInstructorRefresherCourse FIRC_CA_180106
Charlotte, NC 01-06-2018 7:30 AM 01-07-2018 5:00 PM Learn More North Carolina 35.239645000000000 -80.939408000000000 1 mtgFlightInstructorRefresherCourse FIRC_NC_180106
Portland, OR 01-13-2018 7:30 AM 01-14-2018 5:00 PM Learn More Oregon 45.564589000000000 -122.576027000000000 1 mtgFlightInstructorRefresherCourse FIRC_OR_180113
Costa Mesa, CA 01-13-2018 7:30 AM 01-14-2018 5:00 PM Learn More California 33.685262000000000 -117.885804000000000 1 mtgFlightInstructorRefresherCourse FIRC_CA_180113
Alcoa, TN 01-13-2018 7:30 AM 01-14-2018 5:00 PM Learn More Tennessee 35.803000000000000 -83.995400000000000 1 mtgFlightInstructorRefresherCourse FIRC_TN_180113
Renton, WA 01-13-2018 7:30 AM 01-14-2018 5:00 PM Learn More Washington 47.470637000000000 -122.217716000000000 1 mtgFlightInstructorRefresherCourse FIRC_WA_180113
Jackson, MS 01-20-2018 7:30 AM 01-21-2018 5:00 PM Learn More Mississippi 32.399544000000000 -90.143421000000000 1 mtgFlightInstructorRefresherCourse FIRC_MS_180120
Frederick, MD 01-20-2018 7:30 AM 01-21-2018 5:00 PM Learn More Maryland 39.418320000000001 -77.336160000000007 1 mtgFlightInstructorRefresherCourse FIRC_MD_180120
Romulus, MI 01-20-2018 7:30 AM 01-21-2018 5:00 PM Learn More Michigan 42.241789000000000 -83.347649000000000 1 mtgFlightInstructorRefresherCourse FIRC_MI_180120
San Antonio, TX 01-27-2018 7:30 AM 01-28-2018 5:00 PM Learn More Texas 29.505516000000000 -98.545096000000000 1 mtgFlightInstructorRefresherCourse FIRC_TX_180127
Louisville, KY 02-10-2018 7:30 AM 02-11-2018 5:00 PM Learn More Kentucky 38.191659000000000 -85.742400000000000 1 mtgFlightInstructorRefresherCourse FIRC_KY_180210
Orlando, FL 02-10-2018 7:30 AM 02-11-2018 5:00 PM Learn More Florida 28.462529000000000 -81.311287000000000 1 mtgFlightInstructorRefresherCourse FIRC_FL_180210
Las Vegas, NV 02-10-2018 7:30 AM 02-11-2018 5:00 PM Learn More Nevada 36.115747000000000 -115.193279000000000 1 mtgFlightInstructorRefresherCourse FIRC_NV_180210
Fairfax, VA 02-10-2018 7:30 AM 02-11-2018 5:00 PM Learn More Virginia 38.872942000000000 -77.370502000000000 1 mtgFlightInstructorRefresherCourse FIRC_VA_180210
Sacramento, CA 02-17-2018 7:30 AM 02-18-2018 5:00 PM Learn More California 38.600554000000000 -121.431605000000000 1 mtgFlightInstructorRefresherCourse FIRC_CA_180217
Nashua, NH 02-17-2018 7:30 AM 02-18-2018 5:00 PM Learn More New Hampshire 42.786203000000000 -71.509929000000000 1 mtgFlightInstructorRefresherCourse FIRC_NH_180217
Fort Worth, TX 02-24-2018 7:30 AM 02-25-2018 5:00 PM Learn More Texas 32.823115000000000 -97.056111000000000 1 mtgFlightInstructorRefresherCourse FIRC_TX_180224
Kenner, LA 02-24-2018 7:30 AM 02-25-2018 5:00 PM Learn More Louisiana 30.006973000000000 -90.240688000000000 1 mtgFlightInstructorRefresherCourse FIRC_LA_180224
Tempe, AZ 03-03-2018 7:30 AM 03-04-2018 5:00 PM Learn More Arizona 33.411416000000000 -111.969673000000000 1 mtgFlightInstructorRefresherCourse FIRC_AZ_180303
King Of Prussia, PA 03-10-2018 7:30 AM 03-11-2018 5:00 PM Learn More Pennsylvania 40.089306000000000 -75.388475000000000 1 mtgFlightInstructorRefresherCourse FIRC_PA_180310
Santa Clara, CA 03-10-2018 7:30 AM 03-11-2018 5:00 PM Learn More California 37.382500000000000 -121.979300000000000 1 mtgFlightInstructorRefresherCourse FIRC_CA_180310A
Ontario, CA 03-10-2018 7:30 AM 03-11-2018 5:00 PM Learn More California 34.065413000000000 -117.604793000000000 1 mtgFlightInstructorRefresherCourse FIRC_CA_180310
San Diego, CA 04-07-2018 7:30 AM 04-08-2018 5:00 PM Learn More California 32.725703000000000 -117.223193000000000 1 mtgFlightInstructorRefresherCourse FIRC_CA_180407
Salt Lake Cty, UT 04-07-2018 7:30 AM 04-08-2018 5:00 PM Learn More Utah 40.758613000000000 -111.895392000000000 1 mtgFlightInstructorRefresherCourse FIRC_UT_180407
Atlanta, GA 04-07-2018 7:30 AM 04-08-2018 5:00 PM Learn More Georgia 33.659125000000000 -84.437489000000000 1 mtgFlightInstructorRefresherCourse FIRC_GA_180407
Indianapolis, IN 04-14-2018 7:30 AM 04-15-2018 5:00 PM Learn More Indiana 39.729767000000000 -86.269647000000000 1 mtgFlightInstructorRefresherCourse FIRC_IN_180414
Dedham, MA 04-14-2018 7:30 AM 04-15-2018 5:00 PM Learn More Massachusetts 42.232028000000000 -71.182748000000000 1 mtgFlightInstructorRefresherCourse FIRC_MA_180414
Dulles, VA 04-21-2018 7:30 AM 04-22-2018 5:00 PM Learn More Virginia 38.985093000000000 -77.429156000000000 1 mtgFlightInstructorRefresherCourse FIRC_VA_180421
Tampa, FL 04-21-2018 7:30 AM 04-22-2018 5:00 PM Learn More Florida 27.951800000000000 -82.524300000000000 1 mtgFlightInstructorRefresherCourse FIRC_FL_180421
Aurora, CO 04-21-2018 7:30 AM 04-22-2018 5:00 PM Learn More Colorado 39.772009000000000 -104.796186000000000 1 mtgFlightInstructorRefresherCourse FIRC_CO_180421
Hollywood, FL 05-05-2018 7:30 AM 05-06-2018 5:00 PM Learn More Florida 26.033572000000000 -80.166006000000000 1 mtgFlightInstructorRefresherCourse FIRC_FL_180505
Conroe, TX 05-05-2018 7:30 AM 05-06-2018 5:00 PM Learn More Texas 30.340300000000000 -95.418900000000000 1 mtgFlightInstructorRefresherCourse FIRC_TX_180505
Albany, NY 05-05-2018 7:30 AM 05-06-2018 5:00 PM Learn More New York 42.647246000000000 -73.750361000000000 1 mtgFlightInstructorRefresherCourse FIRC_NY_180505
Sacramento, CA 05-19-2018 7:30 AM 05-20-2018 5:00 PM Learn More California 38.663058000000000 -121.355317000000000 1 mtgFlightInstructorRefresherCourse FIRC_CA_180519

Questions? Contact us at [email protected] or 800/USA-AOPA (800/872-2672)
Monday - Friday, 8:30 am - 6:00 pm ET